GW5770 Weather Reports


Display with metric or nautical units.
time (UTC)temp
F
wind
direction
speed
MPH
gust
MPH
rain 1hr
in
rain 24hr
in
rain mn
in
humidity
%
barometer
mb
20260507130349 53 52 1.0 7.0 0.00 0.07 0.07 69 1013.8
20260507125848 53 256 0.0 2.0 0.00 0.07 0.07 72 1013.5
20260507125345 53 284 0.0 1.0 0.00 0.07 0.07 72 1013.8
20260507124842 53 282 0.0 2.0 0.00 0.07 0.07 74 1013.9
20260507124338 53 247 0.0 1.0 0.00 0.07 0.07 73 1013.8
20260507123837 53 310 0.0 0.0 0.00 0.07 0.07 74 1013.6
20260507123334 53 258 1.0 2.0 0.00 0.07 0.07 75 1014.0
20260507122830 53 246 0.0 1.0 0.00 0.07 0.07 75 1013.9
20260507122325 53 258 1.0 2.0 0.00 0.07 0.07 74 1013.7
20260507121823 53 277 0.0 0.0 0.00 0.07 0.07 77 1013.6
20260507121317 53 254 0.0 1.0 0.00 0.07 0.07 74 1013.7
20260507120814 53 258 0.0 1.0 0.00 0.07 0.07 75 1013.7
20260507120310 53 229 0.0 1.0 0.00 0.07 0.07 75 1013.6
20260507115807 53 304 0.0 1.0 0.00 0.07 0.07 76 1013.5
20260507115306 53 56 1.0 6.0 0.00 0.07 0.07 76 1013.5
20260507114758 53 247 2.0 4.0 0.00 0.07 0.07 79 1013.6
20260507114256 53 166 0.0 0.0 0.00 0.07 0.07 83 1013.3
20260507113753 53 250 0.0 3.0 0.00 0.07 0.07 86 1013.3
20260507113250 53 249 1.0 2.0 0.00 0.07 0.07 88 1013.2
20260507112748 53 73 0.0 1.0 0.00 0.07 0.07 91 1013.2
20260507112244 54 286 2.0 2.0 0.00 0.07 0.07 93 1013.3
20260507111742 54 256 0.0 1.0 0.00 0.07 0.07 94 1013.2
20260507111238 54 258 0.0 1.0 0.00 0.07 0.07 95 1013.1
20260507110735 54 257 0.0 0.0 0.00 0.07 0.07 95 1013.2
20260507110231 54 348 0.0 0.0 0.00 0.07 0.07 95 1013.1
20260507105728 54 269 0.0 0.0 0.00 0.07 0.07 96 1013.2
20260507105224 54 268 0.0 0.0 0.00 0.07 0.07 96 1013.2
20260507104722 54 269 0.0 0.0 0.00 0.07 0.07 96 1013.1
20260507104218 54 268 0.0 0.0 0.00 0.07 0.07 96 1012.8
20260507103714 54 269 0.0 1.0 0.00 0.07 0.07 96 1012.8
20260507103211 54 262 0.0 0.0 0.00 0.07 0.07 96 1012.8
20260507102707 54 260 0.0 1.0 0.00 0.07 0.07 96 1012.8
20260507102204 54 259 0.0 0.0 0.00 0.07 0.07 96 1012.6
20260507101700 54 259 0.0 0.0 0.00 0.07 0.07 96 1012.5
20260507101155 54 260 0.0 0.0 0.00 0.07 0.07 96 1012.6
20260507100653 54 351 0.0 1.0 0.00 0.07 0.07 96 1012.8
20260507100151 54 228 0.0 0.0 0.00 0.07 0.07 96 1012.5
20260507095649 54 258 0.0 0.0 0.00 0.07 0.07 96 1012.6
20260507095145 54 258 0.0 0.0 0.00 0.07 0.07 96 1012.6
20260507094642 54 245 0.0 0.0 0.00 0.07 0.07 96 1012.7
20260507094138 54 229 0.0 0.0 0.00 0.07 0.07 96 1012.6
20260507093636 54 230 0.0 0.0 0.00 0.07 0.07 96 1012.5
20260507093134 54 229 0.0 0.0 0.00 0.07 0.07 96 1012.6
20260507092631 54 229 0.0 0.0 0.00 0.07 0.07 96 1012.7
20260507092127 54 225 0.0 0.0 0.00 0.07 0.07 95 1012.3
20260507091624 54 325 0.0 0.0 0.00 0.07 0.07 95 1012.2
20260507091120 54 240 0.0 0.0 0.00 0.07 0.07 95 1012.4
20260507090616 54 191 0.0 0.0 0.00 0.07 0.07 95 1012.4
20260507090113 54 254 0.0 0.0 0.00 0.07 0.07 95 1012.6
20260507085610 54 259 0.0 0.0 0.00 0.07 0.07 95 1012.4
20260507085107 54 254 0.0 0.0 0.00 0.07 0.07 95 1012.3
20260507084603 54 255 0.0 0.0 0.00 0.07 0.07 95 1012.2
20260507084101 54 247 0.0 0.0 0.00 0.07 0.07 94 1012.2
20260507083556 54 247 0.0 0.0 0.00 0.07 0.07 94 1012.5
20260507083054 54 247 0.0 0.0 0.00 0.07 0.07 94 1012.4
20260507082549 54 248 0.0 0.0 0.00 0.07 0.07 94 1012.4
20260507082046 54 251 0.0 1.0 0.00 0.07 0.07 94 1012.3
20260507081543 54 222 0.0 0.0 0.00 0.07 0.07 94 1012.1
20260507081040 54 204 0.0 0.0 0.00 0.07 0.07 94 1011.7
20260507080535 54 205 0.0 1.0 0.00 0.07 0.07 94 1011.8
20260507080032 54 250 0.0 2.0 0.00 0.07 0.07 94 1011.6
20260507075527 54 297 2.0 3.0 0.00 0.07 0.07 94 1011.7
20260507075024 54 232 0.0 1.0 0.00 0.07 0.07 94 1011.8
20260507074521 54 259 0.0 3.0 0.00 0.07 0.07 94 1011.8
20260507074020 54 258 0.0 1.0 0.00 0.07 0.07 94 1011.7
20260507073515 54 278 1.0 2.0 0.00 0.07 0.07 94 1011.4
20260507073012 54 253 0.0 1.0 0.00 0.07 0.07 93 1011.4
20260507072509 55 273 1.0 3.0 0.00 0.07 0.07 93 1011.6
20260507072006 55 256 0.0 2.0 0.00 0.07 0.07 93 1011.5
20260507071504 55 305 2.0 2.0 0.05 0.07 0.07 93 1011.5
20260507071000 55 254 1.0 2.0 0.12 0.07 0.07 93 1011.5
20260507070457 55 287 1.0 2.0 0.07 0.06 0.06 93 1011.4
20260507065954 55 273 1.0 7.0 0.00 0.05 0.05 94 1011.5
20260507065451 55 260 0.0 1.0 0.00 0.05 0.05 94 1011.4
20260507064948 55 305 2.0 4.0 0.00 0.05 0.05 94 1011.5
20260507064446 55 227 1.0 2.0 0.00 0.05 0.05 94 1011.6
20260507063944 55 199 0.0 2.0 0.00 0.05 0.05 94 1011.6
20260507063440 55 292 0.0 1.0 0.00 0.05 0.05 94 1011.7
20260507062937 55 227 1.0 2.0 0.00 0.05 0.05 94 1011.6
20260507062434 55 270 0.0 2.0 0.00 0.05 0.05 94 1011.5
20260507061932 55 304 5.0 7.0 0.00 0.05 0.05 94 1011.4
20260507061430 55 326 2.0 3.0 0.00 0.05 0.05 94 1011.4
20260507060928 55 13 2.0 4.0 0.00 0.05 0.05 94 1011.3
20260507060424 55 218 4.0 6.0 0.00 0.05 0.05 94 1011.4
20260507055921 56 338 0.0 3.0 0.00 0.05 0.05 94 1011.5
20260507055416 56 236 1.0 2.0 0.05 0.05 0.05 94 1011.5
20260507054914 56 295 3.0 4.0 0.05 0.05 0.05 93 1011.7
20260507054410 56 218 0.0 2.0 0.00 0.04 0.04 93 1011.5
20260507053907 56 306 1.0 2.0 0.00 0.04 0.04 93 1011.8
20260507053405 56 243 0.0 1.0 0.00 0.04 0.04 93 1011.6
20260507052903 56 277 2.0 4.0 0.00 0.04 0.04 93 1011.8
20260507052400 56 335 1.0 2.0 0.00 0.04 0.04 92 1011.7
20260507051857 56 287 1.0 2.0 0.00 0.04 0.04 92 1011.3
20260507051355 56 262 1.0 2.0 0.00 0.04 0.04 92 1011.4
20260507050851 57 247 1.0 2.0 0.00 0.04 0.04 91 1011.2
20260507050348 57 336 1.0 2.0 0.00 0.04 0.04 91 1011.7
20260507045845 57 356 1.0 2.0 0.07 0.04 0.04 90 1011.7
20260507045341 57 279 1.0 2.0 0.12 0.04 0.04 89 1011.7
20260507044839 57 303 1.0 2.0 0.00 0.02 0.02 88 1011.9
20260507044335 58 14 2.0 3.0 0.00 0.02 0.02 88 1011.7
20260507043831 58 14 1.0 1.0 0.00 0.02 0.02 88 1011.8
20260507043328 59 239 1.0 2.0 0.07 0.02 0.02 86 1011.5
20260507042824 60 91 1.0 4.0 0.14 0.02 0.02 86 1011.7
20260507042320 60 113 2.0 3.0 0.07 0.01 0.01 84 1012.0
20260507041817 61 300 0.0 2.0 0.00 0.00 0.00 83 1011.9
20260507041313 61 251 1.0 2.0 0.00 0.00 0.00 81 1011.5
20260507040811 61 226 0.0 3.0 0.00 0.00 0.00 81 1011.6
20260507040307 61 272 1.0 1.0 0.00 0.00 0.00 81 1011.5
20260507035802 61 2 2.0 2.0 0.00 0.26 0.26 81 1011.4
20260507035258 61 247 0.0 2.0 0.00 0.26 0.26 80 1011.2
20260507034756 62 271 1.0 4.0 0.00 0.26 0.26 78 1011.1
20260507034252 62 59 2.0 6.0 0.00 0.26 0.26 77 1011.1
20260507033751 63 249 1.0 3.0 0.00 0.26 0.26 76 1011.2
20260507033248 63 69 1.0 4.0 0.00 0.26 0.26 75 1011.1
20260507032745 63 304 1.0 8.0 0.00 0.26 0.26 75 1011.2
20260507032241 63 110 0.0 2.0 0.00 0.26 0.26 75 1011.2
20260507031738 63 289 2.0 4.0 0.00 0.26 0.26 75 1011.1
20260507031235 63 30 2.0 6.0 0.00 0.26 0.26 76 1011.3
20260507030731 63 242 2.0 3.0 0.00 0.26 0.26 75 1011.1
20260507030229 63 282 1.0 2.0 0.00 0.26 0.26 75 1010.7
20260507025726 63 292 1.0 3.0 0.00 0.26 0.26 75 1010.4
20260507025223 63 345 3.0 10.0 0.00 0.26 0.26 74 1010.6
20260507024721 64 339 1.0 6.0 0.00 0.26 0.26 74 1010.8
20260507024218 64 54 2.0 7.0 0.00 0.26 0.26 74 1011.0
20260507023714 64 269 8.0 9.0 0.00 0.26 0.26 75 1011.0
20260507023211 64 342 3.0 11.0 0.00 0.26 0.26 75 1010.9
20260507022708 65 68 1.0 4.0 0.00 0.26 0.26 78 1010.6
20260507022204 65 209 1.0 4.0 0.00 0.26 0.26 78 1010.6
20260507021700 65 242 0.0 1.0 0.00 0.26 0.26 79 1010.6
20260507021155 65 201 0.0 2.0 0.00 0.26 0.26 81 1010.6
20260507020655 66 26 0.0 3.0 0.00 0.26 0.26 80 1010.4
20260507020150 66 277 2.0 3.0 0.00 0.26 0.26 80 1010.5
20260507015648 66 320 1.0 6.0 0.00 0.26 0.26 80 1010.2
20260507015145 66 291 3.0 6.0 0.00 0.26 0.26 80 1010.2
20260507014642 66 276 2.0 6.0 0.00 0.26 0.26 80 1010.2
20260507014138 67 266 2.0 7.0 0.00 0.26 0.26 81 1010.1
20260507013635 67 263 1.0 3.0 0.00 0.26 0.26 82 1010.4
20260507013132 68 233 2.0 3.0 0.00 0.26 0.26 82 1010.3
20260507012629 68 300 5.0 7.0 0.00 0.26 0.26 83 1010.3
20260507012124 68 276 1.0 2.0 0.00 0.26 0.26 83 1010.3
20260507011623 68 233 1.0 1.0 0.00 0.26 0.26 83 1010.4
20260507011119 68 261 1.0 2.0 0.00 0.26 0.26 83 1010.4
20260507010614 68 220 0.0 0.0 0.00 0.26 0.26 84 1010.4
20260507010110 68 270 1.0 1.0 0.00 0.26 0.26 84 1010.1
20260507005608 67 266 1.0 1.0 0.00 0.26 0.26 85 1010.3
20260507005104 67 250 0.0 0.0 0.00 0.26 0.26 85 1010.2
20260507004601 67 230 0.0 0.0 0.00 0.26 0.26 85 1010.3
20260507004058 67 229 0.0 0.0 0.00 0.26 0.26 85 1010.1
20260507003554 67 229 0.0 0.0 0.00 0.26 0.26 85 1010.2
20260507003049 68 229 0.0 0.0 0.00 0.26 0.26 84 1009.8
20260507002546 68 229 0.0 0.0 0.00 0.26 0.26 83 1010.0
20260507002042 68 185 0.0 0.0 0.00 0.26 0.26 82 1009.7
20260507001539 68 212 0.0 0.0 0.00 0.26 0.26 82 1009.8
20260507001036 68 222 0.0 0.0 0.00 0.26 0.26 82 1009.9
20260507000532 68 214 0.0 0.0 0.00 0.26 0.26 81 1009.7
20260507000028 68 214 0.0 0.0 0.00 0.26 0.26 81 1009.9
20260506235526 68 214 0.0 0.0 0.00 0.26 0.26 81 1009.7
20260506235021 68 214 0.0 0.0 0.00 0.26 0.26 80 1009.8
20260506234519 69 214 0.0 0.0 0.00 0.26 0.26 80 1009.8
20260506234016 69 203 0.0 0.0 0.00 0.26 0.26 80 1009.6
20260506233512 69 202 0.0 0.0 0.00 0.26 0.26 79 1009.6
20260506233009 69 208 0.0 0.0 0.00 0.26 0.26 80 1009.4
20260506232505 69 197 0.0 0.0 0.00 0.26 0.26 79 1009.3
20260506232001 69 231 0.0 0.0 0.00 0.26 0.26 79 1009.5
20260506231459 69 215 2.0 3.0 0.00 0.26 0.26 78 1009.3
20260506230956 69 191 0.0 0.0 0.00 0.26 0.26 79 1009.1
20260506230452 69 162 0.0 1.0 0.00 0.26 0.26 78 1009.2
20260506225949 69 211 1.0 2.0 0.00 0.26 0.26 78 1009.4
20260506225446 70 222 2.0 3.0 0.00 0.26 0.26 76 1009.1
20260506224943 70 198 0.0 0.0 0.00 0.26 0.26 77 1009.0
20260506224440 70 266 1.0 2.0 0.00 0.26 0.26 77 1008.9
20260506223936 70 248 1.0 1.0 0.00 0.26 0.26 77 1009.0
20260506223432 70 211 3.0 4.0 0.00 0.26 0.26 76 1009.1
20260506222930 70 201 0.0 1.0 0.00 0.26 0.26 77 1009.2
20260506222426 71 200 1.0 3.0 0.00 0.26 0.26 75 1009.1
20260506221923 71 236 0.0 1.0 0.00 0.26 0.26 76 1008.9
20260506221420 71 203 0.0 2.0 0.00 0.26 0.26 76 1008.9
20260506220918 71 219 2.0 3.0 0.00 0.26 0.26 75 1008.9
20260506220413 71 229 0.0 2.0 0.00 0.26 0.26 74 1009.0
20260506215910 72 218 1.0 4.0 0.00 0.26 0.26 73 1009.0
20260506215406 71 194 1.0 3.0 0.00 0.26 0.26 74 1008.8
20260506214902 72 199 3.0 6.0 0.00 0.26 0.26 73 1008.9
20260506214359 72 210 1.0 3.0 0.00 0.26 0.26 73 1008.8
20260506213857 71 207 1.0 3.0 0.00 0.26 0.26 74 1009.1
20260506213354 71 239 1.0 4.0 0.00 0.26 0.26 74 1009.1
20260506212851 71 283 2.0 4.0 0.00 0.26 0.26 75 1009.0
20260506212347 71 246 1.0 3.0 0.00 0.26 0.26 74 1008.8
20260506211842 71 240 2.0 3.0 0.00 0.26 0.26 74 1008.9
20260506211338 72 224 3.0 4.0 0.00 0.26 0.26 72 1008.8
20260506210836 73 210 1.0 4.0 0.00 0.26 0.26 72 1008.9
20260506210332 72 236 0.0 3.0 0.00 0.26 0.26 73 1008.7
20260506205830 71 233 2.0 3.0 0.00 0.26 0.26 73 1008.5
20260506205325 71 248 3.0 3.0 0.00 0.26 0.26 73 1008.3
20260506204822 71 239 3.0 3.0 0.00 0.26 0.26 72 1008.4
20260506204320 71 182 1.0 4.0 0.00 0.26 0.26 73 1008.5
20260506203817 72 230 1.0 4.0 0.00 0.26 0.26 73 1008.5
20260506203315 72 262 2.0 4.0 0.00 0.26 0.26 72 1008.6
20260506202811 71 239 2.0 4.0 0.00 0.26 0.26 73 1008.3
20260506202308 71 204 2.0 3.0 0.00 0.26 0.26 73 1008.4
20260506201804 71 234 2.0 4.0 0.00 0.26 0.26 74 1008.6
20260506201302 71 197 0.0 2.0 0.00 0.26 0.26 75 1008.5
20260506200759 70 227 2.0 11.0 0.00 0.26 0.26 75 1008.5
20260506200255 70 244 2.0 7.0 0.00 0.26 0.26 75 1008.6
20260506195751 70 217 2.0 6.0 0.00 0.26 0.26 74 1008.7
20260506195248 71 208 2.0 7.0 0.00 0.26 0.26 74 1008.7
20260506194745 70 199 1.0 3.0 0.00 0.26 0.26 75 1008.6
20260506194242 71 319 3.0 4.0 0.00 0.26 0.26 74 1008.6
20260506193740 71 248 1.0 6.0 0.00 0.26 0.26 74 1008.7
20260506193236 71 193 0.0 4.0 0.00 0.26 0.26 74 1008.6
20260506192732 70 237 1.0 9.0 0.00 0.26 0.26 75 1008.5
20260506192229 70 216 3.0 6.0 0.00 0.26 0.26 74 1008.6
20260506191726 70 169 1.0 2.0 0.00 0.26 0.26 77 1009.0
20260506191222 71 152 2.0 7.0 0.00 0.26 0.26 74 1008.9
20260506190720 71 227 2.0 4.0 0.00 0.26 0.26 74 1008.8
20260506190216 69 233 5.0 8.0 0.00 0.26 0.26 75 1008.9
20260506185714 69 228 2.0 6.0 0.00 0.26 0.26 77 1009.0
20260506185209 68 159 3.0 4.0 0.00 0.26 0.26 78 1009.2
20260506184707 68 213 2.0 6.0 0.00 0.26 0.26 78 1009.3
20260506184204 68 190 2.0 3.0 0.00 0.26 0.26 78 1009.1
20260506183701 68 259 1.0 3.0 0.00 0.26 0.26 78 1009.4
20260506183157 68 233 1.0 3.0 0.00 0.26 0.26 78 1009.1
20260506182654 69 212 4.0 6.0 0.00 0.26 0.26 76 1009.3
20260506182151 68 230 0.0 8.0 0.00 0.26 0.26 79 1009.4
20260506181649 68 242 1.0 2.0 0.00 0.26 0.26 79 1009.6
20260506181146 68 231 3.0 6.0 0.00 0.26 0.26 78 1009.3
20260506180644 68 221 3.0 6.0 0.00 0.26 0.26 78 1009.6
20260506180139 69 224 3.0 8.0 0.00 0.26 0.26 75 1009.6
20260506175636 69 186 0.0 3.0 0.00 0.26 0.26 78 1009.3
20260506175132 69 232 4.0 6.0 0.00 0.26 0.26 77 1009.5
20260506174631 69 276 2.0 3.0 0.00 0.26 0.26 78 1009.6
20260506174127 68 234 3.0 4.0 0.00 0.26 0.26 80 1009.6
20260506173625 67 227 3.0 6.0 0.00 0.26 0.26 81 1009.7
20260506173122 67 240 3.0 4.0 0.00 0.26 0.26 80 1009.6
20260506172619 67 207 3.0 4.0 0.00 0.26 0.26 81 1009.6
20260506172115 67 200 3.0 7.0 0.00 0.26 0.26 81 1009.6
20260506171613 66 198 1.0 3.0 0.00 0.26 0.26 82 1009.7
20260506171110 66 223 1.0 6.0 0.00 0.26 0.26 81 1009.6
20260506170607 66 107 3.0 7.0 0.00 0.26 0.26 82 1009.8
20260506170105 66 208 4.0 8.0 0.00 0.26 0.26 83 1009.8
20260506165603 66 214 4.0 8.0 0.00 0.26 0.26 83 1009.7
20260506165059 66 201 2.0 9.0 0.00 0.26 0.26 84 1009.7
20260506164556 65 162 2.0 8.0 0.00 0.26 0.26 84 1009.8
20260506164054 65 191 4.0 8.0 0.00 0.26 0.26 85 1009.7
20260506163549 65 237 3.0 8.0 0.00 0.26 0.26 87 1009.8
20260506163046 65 186 2.0 7.0 0.00 0.26 0.26 89 1009.8
20260506162542 64 181 2.0 6.0 0.00 0.26 0.26 90 1009.9
20260506162039 63 211 4.0 8.0 0.00 0.26 0.26 91 1010.0
20260506161537 63 222 4.0 9.0 0.00 0.26 0.26 91 1009.9
20260506161033 63 243 5.0 15.0 0.00 0.26 0.26 91 1009.7
20260506160531 63 192 2.0 8.0 0.00 0.26 0.26 93 1010.0
20260506160028 63 177 6.0 8.0 0.00 0.26 0.26 93 1009.9
20260506155526 62 233 1.0 14.0 0.00 0.26 0.26 94 1009.9
20260506153657 62 190 6.0 10.0 0.00 0.26 0.26 95 1010.2
20260506153155 62 210 2.0 4.0 0.00 0.26 0.26 96 1010.4
20260506152652 61 215 2.0 4.0 0.05 0.26 0.26 96 1010.4
20260506152149 61 219 1.0 9.0 0.05 0.26 0.26 96 1010.4
20260506151648 60 201 2.0 3.0 0.07 0.25 0.25 96 1010.2
20260506151144 60 185 5.0 11.0 0.12 0.25 0.25 95 1010.3
20260506150641 60 157 1.0 6.0 0.05 0.24 0.24 95 1010.6
20260506150138 60 171 5.0 7.0 0.07 0.23 0.23 95 1010.6
20260506145635 61 160 3.0 16.0 0.07 0.23 0.23 95 1010.4
20260506145131 61 80 1.0 4.0 0.05 0.22 0.22 95 1011.0
20260506144629 61 206 1.0 4.0 0.00 0.21 0.21 96 1011.0
20260506144125 60 176 2.0 3.0 0.00 0.21 0.21 95 1011.0
20260506143623 61 193 2.0 3.0 0.00 0.21 0.21 95 1010.9
20260506143121 60 237 1.0 3.0 0.07 0.21 0.21 96 1011.1
20260506142619 60 162 1.0 3.0 0.07 0.21 0.21 95 1011.0
20260506142117 60 185 1.0 4.0 0.00 0.20 0.20 95 1010.9
20260506141614 60 279 2.0 3.0 0.05 0.20 0.20 95 1010.8
20260506141113 60 212 0.0 4.0 0.12 0.20 0.20 95 1010.9
20260506140610 60 209 2.0 3.0 0.12 0.19 0.19 95 1010.9
20260506140107 60 208 1.0 4.0 0.12 0.18 0.18 95 1010.8
20260506135604 60 96 1.0 4.0 0.19 0.17 0.17 94 1010.8
20260506135100 60 190 4.0 4.0 0.12 0.15 0.15 94 1010.9
20260506134556 60 201 1.0 3.0 0.12 0.14 0.14 94 1011.0
20260506134052 60 178 0.0 1.0 0.17 0.13 0.13 94 1011.1
20260506133550 61 207 0.0 2.0 0.12 0.11 0.11 93 1011.3
20260506133047 61 198 2.0 3.0 0.19 0.10 0.10 92 1011.2
20260506132544 61 200 0.0 3.0 0.19 0.08 0.08 92 1011.5
20260506132041 61 221 2.0 3.0 0.24 0.07 0.07 91 1011.4
20260506131538 61 222 2.0 3.0 0.12 0.05 0.05 90 1011.3
20260506131034 62 188 2.0 6.0 0.00 0.03 0.03 90 1011.5